SCP
0 0 0 0 0 0 0 0 0 0 0 0 0 0 0 0 0 0 0 0 0 0 0 0 0 0 0 0 0 0 0 0 0 0 0 0 0 0 0 0 0 0 0
0 0 0 0 0 0 0 0 0 0 0 0 0 0 0 0 0 0 0 0 0 0 0 0 0 0 0 0 0 0 0 0 0 0 0 0 0 0 0 0 0 0 0
0 0 0 0 0 0 0 0 0 0 0 0 0 0 0 0 0 0 0 0 0 0 0 0 0 0 0 0 0 0 0 0 0 0 0 0 0 0 0 0 0 0 0
0 0 0 0 0 0 0 0 0 0 0 0 0 0 0 0 0 0 0 0 0 0 0 0 0 0 0 0 0 0 0 0 0 0 0 0 0 0 0 0 0 0 0
0 0 0 0 0 0 0 0 0 0 0 0 0 0 0 0 0 0 0 0 0 0 0 0 0 0 0 0 0 0 0 0 0 0 0 0 0 0 0 0 0 0 0
0 0 0 0 0 0 0 0 0 0 0 0 0 0 0 0 0 0 0 0 0 0 0 0 0 0 0 0 0 0 0 0 0 0 0 0 0 0 0 0 0 0 0
0 0 0 0 0 0 0 0 0 0 0 0 0 0 0 0 0 0 0 0 0 0 0 0 0 0 0 0 0 0 0 0 0 0 0 0 0 0 0 0 0 0 0
0 0 0 0 0 0 0 0 0 0 0 0 0 0 0 0 0 0 0 0 0 0 0 0 0 0 0 0 0 0 0 0 0 0 0 0 0 0 0 0 0 0 0
0 0 0 0 0 0 0 0 0 0 0 0 0 0 0 0 0 0 0 0 0 0 0 0 0 0 0 0 0 0 0 0 0 0 0 0 0 0 0 0 0 0 0
0 0 0 0 0 0 0 0 0 0 0 0 0 0 0 0 0 0 0 0 0 0 0 0 0 0 0 0 0 0 0 0 0 0 0 0 0 0 0 0 0 0 0
0 0 0 0 0 0 0 0 0 0 0 0 0 0 0 0 0 0 0 0 0 0 0 0 0 0 0 0 0 0 0 0 0 0 0 0 0 0 0 0 0 0 0
0 0 0 0 0 0 0 0 0 0 0 0 0 0 0 0 0 0 0 0 0 0 0 0 0 0 0 0 0 0 0 0 0 0 0 0 0 0 0 0 0 0 0
0 0 0 0 0 0 0 0 0 0 0 0 0 0 0 0 0 0 0 0 0 0 0 0 0 0 0 0 0 0 0 0 0 0 0 0 0 0 0 0 0 0 0
0 0 0 0 0 0 0 0 0 0 0 0 0 0 0 0 0 0 0 0 0 0 0 0 0 0 0 0 0 0 0 0 0 0 0 0 0 0 0 0 0 0 0
0 0 0 0 0 0 0 0 0 0 0 0 0 0 0 0 0 0 0 0 0 0 0 0 0 0 0 0 0 0 0 0 0 0 0 0 0 0 0 0 0 0 0
0 0 0 0 0 0 0 0 0 0 0 0 0 0 0 0 0 0 0 0 0 0 0 0 0 0 0 0 0 0 0 0 0 0 0 0 0 0 0 0 0 0 0
0 0 0 0 0 0 0 0 0 0 0 0 0 0 0 0 0 0 0 0 0 0 0 0 0 0 0 0 0 0 0 0 0 0 0 0 0 0 0 0 0 0 0
0 0 0 0 0 0 0 0 0 0 0 0 0 0 0 0 0 0 0 0 0 0 0 0 0 0 0 0 0 0 0 0 0 0 0 0 0 0 0 0 0 0 0
0 0 0 0 0 0 0 0 0 0 0 0 0 0 0 0 0 0 0 0 0 0 0 0 0 0 0 0 0 0 0 0 0 0 0 0 0 0 0 0 0 0 0
0 0 0 0 0 0 0 0 0 0 0 0 0 0 0 0 0 0 0 0 0 0 0 0 0 0 0 0 0 0 0 0 0 0 0 0 0 0 0 0 0 0 0
0 0 0 0 0 0 0 0 0 0 0 0 0 0 0 0 0 0 0 0 0 0 0 0 0 0 0 0 0 0 0 0 0 0 0 0 0 0 0 0 0 0 0
0 0 0 0 0 0 0 0 0 0 0 0 0 0 0 0 0 0 0 0 0 0 0 0 0 0 0 0 0 0 0 0 0 0 0 0 0 0 0 0 0 0 0
0 0 0 0 0 0 0 0 0 0 0 0 0 0 0 0 0 0 0 0 0 0 0 0 0 0 0 0 0 0 0 0 0 0 0 0 0 0 0 0 0 0 0
0 0 0 0 0 0 0 0 0 0 0 0 0 0 0 0 0 0 0 0 0 0 0 0 0 0 0 0 0 0 0 0 0 0 0 0 0 0 0 0 0 0 0
0 0 0 0 0 0 0 0 0 0 0 0 0 0 0 0 0 0 0 0 0 0 0 0 0 0 0 0 0 0 0 0 0 0 0 0 0 0 0 0 0 0 0
0 0 0 0 0 0 0 0 0 0 0 0 0 0 0 0 0 0 0 0 0 0 0 0 0 0 0 0 0 0 0 0 0 0 0 0 0 0 0 0 0 0 0
Wind_Speed_500mb
99 96 101 97 92 89 91 90 85 81 77 72 62 56 55 56 53 54 58 58 64 65 64 68 70 70 71 72 75 77 77 79 83 80 68 60 61 58 57 57 58 60 57
97 94 98 90 88 87 88 87 82 79 74 66 58 55 55 51 56 60 63 60 65 64 63 66 69 69 68 71 69 72 84 87 81 90 81 67 75 67 63 57 60 64 61
95 94 95 91 87 82 81 77 77 76 66 57 57 56 51 58 60 61 63 59 59 60 57 66 66 61 62 66 68 65 65 68 66 84 72 71 79 76 62 65 68 67 65
88 90 92 85 79 73 70 69 69 66 58 53 54 53 58 59 58 59 55 54 56 60 60 56 60 59 63 65 64 64 68 62 58 70 75 75 84 79 66 67 68 68 70
82 80 82 76 70 67 63 62 62 59 57 52 52 56 58 58 60 58 60 61 59 62 67 69 68 62 64 60 62 62 58 66 60 71 82 78 78 77 69 73 67 71 68
72 71 71 70 69 68 64 61 59 57 55 55 55 54 54 59 62 58 61 66 62 60 60 61 61 63 64 68 66 58 50 58 59 50 64 73 71 78 72 69 65 70 74
66 64 65 65 62 60 56 55 55 56 56 52 52 52 54 57 62 65 64 54 48 49 54 58 62 59 52 47 45 46 46 36 44 54 57 57 64 63 71 66 64 68 63
55 57 58 56 55 53 50 46 45 46 46 49 50 50 52 53 54 53 48 48 45 40 35 35 35 34 38 41 41 40 41 44 49 52 58 58 63 61 60 59 54 59 55
54 52 51 49 47 43 41 40 40 40 43 46 44 44 42 38 37 35 28 25 24 26 30 35 36 38 42 40 38 39 42 47 53 56 58 59 60 63 63 61 55 51 60
51 49 47 45 42 40 40 40 42 43 39 36 32 28 25 25 23 20 21 23 24 29 32 34 38 41 44 47 48 49 50 47 48 49 52 54 57 55 53 53 56 54 53
48 47 45 40 38 37 37 36 35 31 28 28 26 25 23 22 20 20 22 23 26 28 27 32 36 41 45 48 49 52 50 49 49 51 53 53 51 50 50 49 51 45 56
47 44 41 38 36 33 29 27 26 27 29 27 25 22 22 20 22 20 20 21 24 26 28 31 35 39 41 41 45 48 47 49 46 44 44 45 46 46 45 41 42 47 62
41 37 34 31 28 26 27 27 27 26 25 24 22 20 18 14 14 15 18 18 20 19 22 25 29 32 35 34 36 39 44 40 37 36 34 36 38 41 41 42 48 57 62
34 32 31 31 31 30 29 29 29 29 28 25 21 17 13 12 12 12 13 14 15 17 17 20 24 26 30 31 31 29 34 35 35 36 36 37 40 44 47 50 54 56 63
35 37 37 37 37 39 38 33 29 27 22 19 15 11 6 3 4 6 7 8 9 12 12 14 17 21 24 27 27 27 29 33 37 37 37 38 39 41 43 47 54 57 63
41 43 44 44 42 39 36 39 31 25 21 15 11 8 8 9 12 16 19 19 19 18 15 16 16 17 23 28 30 26 25 26 29 33 37 38 39 39 42 46 48 53 61
50 54 52 47 44 41 36 30 28 28 21 20 17 15 15 14 14 15 17 21 22 22 20 20 21 24 26 29 30 33 33 31 33 34 36 39 40 43 45 49 52 52 57
52 51 49 46 40 37 33 30 26 26 21 17 13 11 12 13 15 18 20 20 17 20 23 24 26 29 32 34 34 36 36 38 39 40 40 40 42 44 46 50 51 56 56
52 50 46 44 40 36 32 29 24 18 14 11 9 7 9 10 15 18 20 19 22 23 25 27 29 31 34 37 42 44 44 45 44 45 43 41 40 41 45 48 51 52 53
49 46 42 39 36 30 27 21 17 14 10 8 7 5 6 11 13 17 21 25 27 30 32 35 37 40 43 45 46 46 45 45 47 49 50 49 48 45 49 52 53 53 52
45 43 36 32 27 23 18 15 12 9 4 3 6 9 12 17 23 27 27 29 33 35 34 37 40 41 43 46 48 48 50 53 55 57 58 57 56 55 51 54 54 54 52
35 33 29 24 21 17 13 8 4 2 5 9 12 16 19 23 27 31 33 34 38 41 41 41 43 45 48 50 52 53 52 52 54 54 55 56 58 60 62 62 57 57 58
27 22 19 15 12 7 5 3 4 8 13 16 19 21 24 27 30 32 33 35 35 38 38 38 38 39 42 44 45 49 49 50 53 55 58 58 57 57 57 59 61 61 59
14 8 8 7 5 4 7 10 13 17 20 21 22 26 28 31 31 35 34 34 32 33 32 33 36 38 40 41 42 44 46 46 46 48 50 54 55 54 54 55 56 57 58
11 9 7 7 8 11 13 18 21 24 25 26 27 30 30 30 30 31 31 29 28 30 31 35 37 40 43 44 46 45 47 45 45 46 49 51 53 52 52 52 53 53 52
11 10 11 13 15 18 21 23 25 28 29 28 29 28 27 27 27 28 31 33 35 38 38 38 41 45 47 48 49 49 50 49 48 47 47 47 49 49 49 49 51 51 52
Wind_Direction_500mb
230 234 233 233 236 237 240 242 244 245 246 247 247 246 247 250 251 253 257 258 261 261 262 263 262 268 270 268 262 262 257 254 261 265 269 270 267 261 255 259 255 257 259
231 235 232 233 236 236 239 241 245 246 247 246 245 244 245 246 252 252 258 259 259 260 260 261 263 265 270 275 274 274 265 259 261 258 263 269 267 262 258 254 254 256 254
229 231 229 230 233 236 238 240 243 247 248 245 243 244 246 251 252 255 256 256 260 262 263 266 267 264 268 276 275 278 282 275 282 261 266 265 261 262 249 249 250 252 248
227 228 228 229 232 233 235 238 240 245 247 244 243 244 248 250 253 253 249 250 259 260 263 264 271 270 268 273 276 277 281 275 279 267 266 256 256 248 246 251 247 257 248
223 225 228 229 229 231 231 232 235 238 242 244 243 245 247 248 243 247 254 256 265 256 258 261 262 264 266 270 277 277 275 275 281 269 264 254 256 253 258 270 251 253 249
218 219 222 223 223 225 227 230 234 237 238 237 237 241 241 242 249 251 255 259 254 252 255 258 262 263 270 269 271 272 273 270 260 264 266 268 264 265 265 263 256 251 244
210 212 214 217 220 222 224 226 227 224 227 230 232 233 240 245 251 252 252 249 253 259 260 262 264 265 266 273 269 272 259 256 263 268 268 273 272 271 267 265 266 258 253
195 201 204 206 210 214 216 217 219 221 224 228 231 234 236 238 243 246 250 253 257 259 261 263 262 263 263 266 269 258 256 260 263 264 265 264 266 268 263 263 265 255 257
189 193 196 197 196 196 198 202 207 212 217 221 225 230 234 238 241 240 238 242 244 252 257 260 262 261 259 260 260 259 263 267 271 273 273 277 278 277 272 265 243 244 252
178 180 184 186 187 190 196 201 207 209 213 217 218 218 219 221 225 232 239 247 251 257 261 264 269 271 273 273 275 273 269 268 268 268 273 275 274 274 273 264 250 246 253
178 182 184 186 190 194 200 202 207 208 209 210 205 211 217 223 234 236 244 248 251 257 265 273 275 277 279 283 284 281 281 279 279 279 279 279 278 277 274 265 257 254 262
184 185 185 185 190 193 194 197 200 205 207 205 208 205 212 219 232 242 252 258 262 262 263 269 277 280 284 290 293 294 293 290 287 283 282 284 283 284 286 281 269 260 264
182 184 185 187 193 194 195 195 192 185 188 188 193 200 206 218 235 248 260 270 281 283 276 280 283 286 289 292 293 297 299 298 297 298 298 298 299 296 289 277 276 278 277
187 188 185 182 176 168 163 164 167 168 171 173 177 186 201 224 247 267 270 279 276 279 277 285 291 293 294 296 296 299 300 304 304 306 307 305 300 297 296 293 286 283 285
181 172 166 163 160 154 151 149 152 151 153 149 150 145 153 210 295 317 320 302 293 303 311 299 296 302 305 305 305 305 304 303 303 305 304 304 302 301 300 299 298 296 290
173 161 154 150 146 144 146 143 138 133 130 124 113 110 98 68 32 16 5 356 348 341 324 312 312 312 313 307 304 302 303 306 304 304 305 306 306 303 299 296 296 295 294
159 149 145 143 141 141 139 133 134 122 114 98 84 67 53 32 23 15 10 355 346 345 341 333 329 323 319 314 312 308 303 296 295 297 298 301 302 303 303 302 301 298 298
149 144 142 141 141 135 130 126 118 107 102 93 79 50 31 9 355 356 355 347 346 344 339 334 333 328 321 314 309 306 309 310 308 304 301 301 300 301 300 300 300 301 301
147 141 137 134 131 128 124 117 113 109 111 109 88 54 19 359 346 349 345 341 340 340 334 328 324 318 309 303 300 300 301 302 303 302 300 296 296 299 300 301 303 303 302
138 132 131 130 127 125 123 125 127 131 133 119 96 64 7 344 329 314 323 327 326 323 320 316 312 308 303 299 298 298 299 301 302 301 302 302 302 300 297 296 296 296 297
135 131 134 134 132 130 132 133 134 132 118 31 356 346 338 327 324 320 321 319 317 316 315 312 309 304 300 298 298 299 299 297 293 292 293 294 296 298 299 297 296 295 294
137 138 135 134 134 137 138 142 138 36 355 334 327 323 322 321 321 318 319 322 322 319 318 316 314 313 313 312 311 311 310 309 306 304 301 298 295 292 289 287 289 291 291
137 134 135 140 142 151 162 198 302 318 312 314 315 316 319 320 316 316 317 318 316 312 312 311 312 312 312 310 310 309 310 311 310 312 311 310 308 305 302 297 293 291 289
119 139 172 184 191 247 294 301 304 305 304 303 308 311 316 312 314 313 315 314 312 308 311 313 313 313 311 310 310 311 310 310 309 309 308 309 311 311 310 307 302 298 292
192 201 217 249 275 283 290 298 297 298 301 306 307 312 310 310 313 316 311 311 312 311 313 313 312 310 308 309 310 310 309 311 313 313 312 312 311 311 311 308 306 304 299
218 237 254 269 283 291 295 297 298 302 307 309 308 308 313 311 307 303 304 307 308 307 307 307 307 305 305 306 307 308 308 310 311 311 310 309 310 312 312 310 308 305 302
Wind_Speed_850mb
99 96 101 97 92 89 91 90 85 81 77 72 62 56 55 56 53 54 58 58 64 65 64 68 70 70 71 72 75 77 77 79 83 80 68 60 61 58 57 57 58 60 57
97 94 98 90 88 87 88 87 82 79 74 66 58 55 55 51 56 60 63 60 65 64 63 66 69 69 68 71 69 72 84 87 81 90 81 67 75 67 63 57 60 64 61
95 94 95 91 87 82 81 77 77 76 66 57 57 56 51 58 60 61 63 59 59 60 57 66 66 61 62 66 68 65 65 68 66 84 72 71 79 76 62 65 68 67 65
88 90 92 85 79 73 70 69 69 66 58 53 54 53 58 59 58 59 55 54 56 60 60 56 60 59 63 65 64 64 68 62 58 70 75 75 84 79 66 67 68 68 70
82 80 82 76 70 67 63 62 62 59 57 52 52 56 58 58 60 58 60 61 59 62 67 69 68 62 64 60 62 62 58 66 60 71 82 78 78 77 69 73 67 71 68
72 71 71 70 69 68 64 61 59 57 55 55 55 54 54 59 62 58 61 66 62 60 60 61 61 63 64 68 66 58 50 58 59 50 64 73 71 78 72 69 65 70 74
66 64 65 65 62 60 56 55 55 56 56 52 52 52 54 57 62 65 64 54 48 49 54 58 62 59 52 47 45 46 46 36 44 54 57 57 64 63 71 66 64 68 63
55 57 58 56 55 53 50 46 45 46 46 49 50 50 52 53 54 53 48 48 45 40 35 35 35 34 38 41 41 40 41 44 49 52 58 58 63 61 60 59 54 59 55
54 52 51 49 47 43 41 40 40 40 43 46 44 44 42 38 37 35 28 25 24 26 30 35 36 38 42 40 38 39 42 47 53 56 58 59 60 63 63 61 55 51 60
51 49 47 45 42 40 40 40 42 43 39 36 32 28 25 25 23 20 21 23 24 29 32 34 38 41 44 47 48 49 50 47 48 49 52 54 57 55 53 53 56 54 53
48 47 45 40 38 37 37 36 35 31 28 28 26 25 23 22 20 20 22 23 26 28 27 32 36 41 45 48 49 52 50 49 49 51 53 53 51 50 50 49 51 45 56
47 44 41 38 36 33 29 27 26 27 29 27 25 22 22 20 22 20 20 21 24 26 28 31 35 39 41 41 45 48 47 49 46 44 44 45 46 46 45 41 42 47 62
41 37 34 31 28 26 27 27 27 26 25 24 22 20 18 14 14 15 18 18 20 19 22 25 29 32 35 34 36 39 44 40 37 36 34 36 38 41 41 42 48 57 62
34 32 31 31 31 30 29 29 29 29 28 25 21 17 13 12 12 12 13 14 15 17 17 20 24 26 30 31 31 29 34 35 35 36 36 37 40 44 47 50 54 56 63
35 37 37 37 37 39 38 33 29 27 22 19 15 11 6 3 4 6 7 8 9 12 12 14 17 21 24 27 27 27 29 33 37 37 37 38 39 41 43 47 54 57 63
41 43 44 44 42 39 36 39 31 25 21 15 11 8 8 9 12 16 19 19 19 18 15 16 16 17 23 28 30 26 25 26 29 33 37 38 39 39 42 46 48 53 61
50 54 52 47 44 41 36 30 28 28 21 20 17 15 15 14 14 15 17 21 22 22 20 20 21 24 26 29 30 33 33 31 33 34 36 39 40 43 45 49 52 52 57
52 51 49 46 40 37 33 30 26 26 21 17 13 11 12 13 15 18 20 20 17 20 23 24 26 29 32 34 34 36 36 38 39 40 40 40 42 44 46 50 51 56 56
52 50 46 44 40 36 32 29 24 18 14 11 9 7 9 10 15 18 20 19 22 23 25 27 29 31 34 37 42 44 44 45 44 45 43 41 40 41 45 48 51 52 53
49 46 42 39 36 30 27 21 17 14 10 8 7 5 6 11 13 17 21 25 27 30 32 35 37 40 43 45 46 46 45 45 47 49 50 49 48 45 49 52 53 53 52
45 43 36 32 27 23 18 15 12 9 4 3 6 9 12 17 23 27 27 29 33 35 34 37 40 41 43 46 48 48 50 53 55 57 58 57 56 55 51 54 54 54 52
35 33 29 24 21 17 13 8 4 2 5 9 12 16 19 23 27 31 33 34 38 41 41 41 43 45 48 50 52 53 52 52 54 54 55 56 58 60 62 62 57 57 58
27 22 19 15 12 7 5 3 4 8 13 16 19 21 24 27 30 32 33 35 35 38 38 38 38 39 42 44 45 49 49 50 53 55 58 58 57 57 57 59 61 61 59
14 8 8 7 5 4 7 10 13 17 20 21 22 26 28 31 31 35 34 34 32 33 32 33 36 38 40 41 42 44 46 46 46 48 50 54 55 54 54 55 56 57 58
11 9 7 7 8 11 13 18 21 24 25 26 27 30 30 30 30 31 31 29 28 30 31 35 37 40 43 44 46 45 47 45 45 46 49 51 53 52 52 52 53 53 52
11 10 11 13 15 18 21 23 25 28 29 28 29 28 27 27 27 28 31 33 35 38 38 38 41 45 47 48 49 49 50 49 48 47 47 47 49 49 49 49 51 51 52
Wind_Direction_850mb
230 234 233 233 236 237 240 242 244 245 246 247 247 246 247 250 251 253 257 258 261 261 262 263 262 268 270 268 262 262 257 254 261 265 269 270 267 261 255 259 255 257 259
231 235 232 233 236 236 239 241 245 246 247 246 245 244 245 246 252 252 258 259 259 260 260 261 263 265 270 275 274 274 265 259 261 258 263 269 267 262 258 254 254 256 254
229 231 229 230 233 236 238 240 243 247 248 245 243 244 246 251 252 255 256 256 260 262 263 266 267 264 268 276 275 278 282 275 282 261 266 265 261 262 249 249 250 252 248
227 228 228 229 232 233 235 238 240 245 247 244 243 244 248 250 253 253 249 250 259 260 263 264 271 270 268 273 276 277 281 275 279 267 266 256 256 248 246 251 247 257 248
223 225 228 229 229 231 231 232 235 238 242 244 243 245 247 248 243 247 254 256 265 256 258 261 262 264 266 270 277 277 275 275 281 269 264 254 256 253 258 270 251 253 249
218 219 222 223 223 225 227 230 234 237 238 237 237 241 241 242 249 251 255 259 254 252 255 258 262 263 270 269 271 272 273 270 260 264 266 268 264 265 265 263 256 251 244
210 212 214 217 220 222 224 226 227 224 227 230 232 233 240 245 251 252 252 249 253 259 260 262 264 265 266 273 269 272 259 256 263 268 268 273 272 271 267 265 266 258 253
195 201 204 206 210 214 216 217 219 221 224 228 231 234 236 238 243 246 250 253 257 259 261 263 262 263 263 266 269 258 256 260 263 264 265 264 266 268 263 263 265 255 257
189 193 196 197 196 196 198 202 207 212 217 221 225 230 234 238 241 240 238 242 244 252 257 260 262 261 259 260 260 259 263 267 271 273 273 277 278 277 272 265 243 244 252
178 180 184 186 187 190 196 201 207 209 213 217 218 218 219 221 225 232 239 247 251 257 261 264 269 271 273 273 275 273 269 268 268 268 273 275 274 274 273 264 250 246 253
178 182 184 186 190 194 200 202 207 208 209 210 205 211 217 223 234 236 244 248 251 257 265 273 275 277 279 283 284 281 281 279 279 279 279 279 278 277 274 265 257 254 262
184 185 185 185 190 193 194 197 200 205 207 205 208 205 212 219 232 242 252 258 262 262 263 269 277 280 284 290 293 294 293 290 287 283 282 284 283 284 286 281 269 260 264
182 184 185 187 193 194 195 195 192 185 188 188 193 200 206 218 235 248 260 270 281 283 276 280 283 286 289 292 293 297 299 298 297 298 298 298 299 296 289 277 276 278 277
187 188 185 182 176 168 163 164 167 168 171 173 177 186 201 224 247 267 270 279 276 279 277 285 291 293 294 296 296 299 300 304 304 306 307 305 300 297 296 293 286 283 285
181 172 166 163 160 154 151 149 152 151 153 149 150 145 153 210 295 317 320 302 293 303 311 299 296 302 305 305 305 305 304 303 303 305 304 304 302 301 300 299 298 296 290
173 161 154 150 146 144 146 143 138 133 130 124 113 110 98 68 32 16 5 356 348 341 324 312 312 312 313 307 304 302 303 306 304 304 305 306 306 303 299 296 296 295 294
159 149 145 143 141 141 139 133 134 122 114 98 84 67 53 32 23 15 10 355 346 345 341 333 329 323 319 314 312 308 303 296 295 297 298 301 302 303 303 302 301 298 298
149 144 142 141 141 135 130 126 118 107 102 93 79 50 31 9 355 356 355 347 346 344 339 334 333 328 321 314 309 306 309 310 308 304 301 301 300 301 300 300 300 301 301
147 141 137 134 131 128 124 117 113 109 111 109 88 54 19 359 346 349 345 341 340 340 334 328 324 318 309 303 300 300 301 302 303 302 300 296 296 299 300 301 303 303 302
138 132 131 130 127 125 123 125 127 131 133 119 96 64 7 344 329 314 323 327 326 323 320 316 312 308 303 299 298 298 299 301 302 301 302 302 302 300 297 296 296 296 297
135 131 134 134 132 130 132 133 134 132 118 31 356 346 338 327 324 320 321 319 317 316 315 312 309 304 300 298 298 299 299 297 293 292 293 294 296 298 299 297 296 295 294
137 138 135 134 134 137 138 142 138 36 355 334 327 323 322 321 321 318 319 322 322 319 318 316 314 313 313 312 311 311 310 309 306 304 301 298 295 292 289 287 289 291 291
137 134 135 140 142 151 162 198 302 318 312 314 315 316 319 320 316 316 317 318 316 312 312 311 312 312 312 310 310 309 310 311 310 312 311 310 308 305 302 297 293 291 289
119 139 172 184 191 247 294 301 304 305 304 303 308 311 316 312 314 313 315 314 312 308 311 313 313 313 311 310 310 311 310 310 309 309 308 309 311 311 310 307 302 298 292
192 201 217 249 275 283 290 298 297 298 301 306 307 312 310 310 313 316 311 311 312 311 313 313 312 310 308 309 310 310 309 311 313 313 312 312 311 311 311 308 306 304 299
218 237 254 269 283 291 295 297 298 302 307 309 308 308 313 311 307 303 304 307 308 307 307 307 307 305 305 306 307 308 308 310 311 311 310 309 310 312 312 310 308 305 302